DELTA 1 DEB, 21268

Orbit data source: Space-Track

DELTA 1 DEB, 21268 is space debris in SSO originally from a launch on Thu, 12 Jun 1975 UTC launched from the Air Force Western Test Range (AFWTR). Debris objects in space refer to the collection of defunct objects orbiting the Earth. Examples of debris include non-operational satellites, rocket bodies, and fragments generated from explosions, collisions, or faulty payload assembly.

Loading next visibility...
Identifier
21268, 1975-052D
Orbit
SSO
Country
Flag of USUS
Related business
Manufacturer
Unknown
Mission
Spacecraft
Bus & Motor
Unknown
Mass
Unknown
Launch date (UTC)
1975-06-12 (51 years ago)
Launch vehicle
Unknown
Launch site
Air Force Western Test Range (AFWTR)
Object type
Payload
Rocket body
Debris
Shape & HBR
Unknown shape, 0.3 m
Radar Cross Section
Medium (>0.1 m² and <1 m²)

Expand to show TLE details & history
Last TLE update: 1 day ago

TLE from 1 day ago
0 DELTA 1 DEB
1 21268U 75052D   26171.37776294 -.00000174  00000-0 -36446-3 0  9990
2 21268  99.8254 209.0864 0197735 292.5344  76.6731 13.06719120674207
Epoch: 2026-06-20T09:03Z
TLE epoch observation values (Epoch: 2026-06-20T09:03:58.718Z)
Latitude
11.21047°
Longitude
162.54141°
Altitude
1,205.976 km
Speed
7.267 km/s
True Right ascension
13h 48m 31s
True Declination
11° 08' 56"
Sunlit
Object was in daylight at epoch
Visualization orbit readout
Latitude
Unknown
Longitude
Unknown
Altitude
Unknown
Speed
Unknown
Apparent Right ascension
Unknown
Apparent Declination
Unknown
Sunlit
N/A
Visualization observer readout
Local Sidereal Time
07:38:39
Azimuth
Unknown
Elevation
Unknown
Doppler factor
Unknown
Orbital elements
Apogee altitude
1,383.745 km
Perigee altitude
1,082.738 km
Semi-major axis
7,611.378 km
Eccentricity
0.01977
Inclination
99.8254°
RAAN
209.0864°
Arg. of periapsis
292.5344°
True anomaly
78.89004°
Mean anomaly
76.6731°
Eccentric anomaly
77.78037°
Mean motion
3.2685 °/min
Orbital period
110.14 mins
BSTAR
-0.00036446
Loading maneuver chart data...
Computing Atmospheric mass density...
Loading historical data...
Loading historical data...
Loading historical data...
Loading historical data...
Loading historical data...
Loading historical data...
Loading historical data...

Documentation

Showing up to 5 results
|